Weather History for Middletown, PA

Change the Weather History Date:

Wednesday, January 2, 2013

  Actual Average Record
Temperature  
Mean Temperature 28 °F 31 °F  
Max Temperature 31 °F 38 °F 62 °F (2000)
Min Temperature 24 °F 24 °F -5 °F (1968)
Degree Days  
Heating Degree Days 37 34  
Month to date heating degree days 67 68  
Since 1 July heating degree days 1939 2069  
Cooling Degree Days 0 0  
Month to date cooling degree days 0 0  
Year to date cooling degree days 0 0  
Moisture  
Dew Point 15 °F    
Average Humidity 59    
Maximum Humidity 68    
Minimum Humidity 49    
Precipitation  
Precipitation 0.00 in 0.09 in 0.99 in (1892)
Month to date precipitation 0.00 0.18  
Year to date precipitation 0.00 0.18  
Snow  
Snow 0.00 in - - ()
Month to date snowfall 0.0  
Since 1 July snowfall 7.5  
Snow Depth 0.00 in    
Sea Level Pressure  
Sea Level Pressure 30.13 in    
Wind  
Wind Speed 10 mph (NW)    
Max Wind Speed 21 mph    
Max Gust Speed 25 mph    
Visibility 10 miles    
Events      
T = Trace of Precipitation, MM = Missing Value Source: NWS Daily Summary

Daily Weather History Graph

Daily Weather History Graph

Search for Another Location

Airport:

Trip Planner

Search our weather history database for the weather conditions in past years. The results will help you decide how hot, cold, wet, or windy it might be!

Date:

Astronomy

Jan. 02, 2013 Rise Set
Actual Time 7:29 AM EST 4:53 PM EST
Civil Twilight 6:59 AM EST 5:23 PM EST
Nautical Twilight 6:25 AM EST 5:57 PM EST
Astronomical Twilight 5:52 AM EST 6:30 PM EST
Moon 10:23 PM EST (1/2) 10:09 AM EST (1/2)
Length of Visible Light 10h 24m
Length of Day
9h 23m
Waning Gibbous, 75% of the Moon is Illuminated
Jan 2
Waning Gibbous
Jan 4
Last Quarter
Jan 11
New
Jan 18
First Quarter
Jan 26
Full

Hourly Weather History & Observations

Time (EST) Temp. Windchill Dew Point Humidity Pressure Visibility Wind Dir Wind Speed Gust Speed Precip Events Conditions
12:56 AM 28.9 °F 22.8 °F 17.1 °F 61% 30.02 in 10.0 mi North 5.8 mph - N/A   Overcast
1:56 AM 28.0 °F 20.8 °F 16.0 °F 61% 30.04 in 10.0 mi NW 6.9 mph - N/A   Overcast
2:56 AM 28.0 °F 18.1 °F 15.1 °F 58% 30.04 in 10.0 mi NW 11.5 mph - N/A   Overcast
3:56 AM 26.6 °F 16.8 °F 15.8 °F 64% 30.03 in 10.0 mi NW 10.4 mph - N/A   Overcast
4:56 AM 27.0 °F 17.3 °F 15.1 °F 61% 30.05 in 10.0 mi NW 10.4 mph - N/A   Overcast
5:56 AM 26.1 °F 16.8 °F 14.0 °F 60% 30.06 in 10.0 mi NW 9.2 mph - N/A   Overcast
6:56 AM 25.0 °F 13.6 °F 14.0 °F 63% 30.07 in 10.0 mi NW 12.7 mph - N/A   Mostly Cloudy
7:56 AM 25.0 °F 12.6 °F 14.0 °F 63% 30.10 in 10.0 mi NW 15.0 mph - N/A   Overcast
8:56 AM 26.1 °F 14.0 °F 14.0 °F 60% 30.12 in 10.0 mi NW 15.0 mph 23.0 mph N/A   Mostly Cloudy
9:56 AM 27.0 °F 15.6 °F 12.9 °F 56% 30.14 in 10.0 mi NW 13.8 mph - N/A   Overcast
10:56 AM 27.0 °F 15.6 °F 14.0 °F 58% 30.14 in 10.0 mi WNW 13.8 mph 23.0 mph N/A   Overcast
11:56 AM 28.9 °F 16.1 °F 15.1 °F 56% 30.13 in 10.0 mi WNW 19.6 mph - N/A   Mostly Cloudy
12:56 PM 30.0 °F 20.5 °F 15.1 °F 54% 30.12 in 10.0 mi WNW 11.5 mph - N/A   Mostly Cloudy
1:56 PM 30.9 °F 21.7 °F 15.1 °F 52% 30.11 in 10.0 mi WNW 11.5 mph - N/A   Scattered Clouds
2:56 PM 30.9 °F 19.8 °F 15.1 °F 52% 30.12 in 10.0 mi NW 16.1 mph - N/A   Mostly Cloudy
3:56 PM 30.0 °F 20.0 °F 14.0 °F 51% 30.13 in 10.0 mi NNW 12.7 mph - N/A   Scattered Clouds
4:56 PM 28.9 °F 19.8 °F 14.0 °F 54% 30.16 in 10.0 mi NNW 10.4 mph - N/A   Scattered Clouds
5:56 PM 28.0 °F 20.0 °F 14.0 °F 56% 30.17 in 10.0 mi NNW 8.1 mph - N/A   Scattered Clouds
6:56 PM 26.1 °F 18.4 °F 14.0 °F 60% 30.19 in 10.0 mi NNW 6.9 mph - N/A   Scattered Clouds
7:56 PM 25.0 °F 18.1 °F 12.9 °F 60% 30.19 in 10.0 mi NW 5.8 mph - N/A   Mostly Cloudy
8:56 PM 25.0 °F 19.3 °F 15.1 °F 66% 30.20 in 10.0 mi NW 4.6 mph - N/A   Mostly Cloudy
9:56 PM 25.0 °F 20.7 °F 15.1 °F 66% 30.22 in 10.0 mi WNW 3.5 mph - N/A   Mostly Cloudy
10:56 PM 26.1 °F 18.4 °F 15.1 °F 63% 30.24 in 10.0 mi WNW 6.9 mph - N/A   Mostly Cloudy
11:56 PM 26.1 °F 18.4 °F 15.1 °F 63% 30.23 in 10.0 mi NW 6.9 mph - N/A   Mostly Cloudy